Regional Weather Roundup
Issued by NWS

Home | Current Version | Previous Version | Graphics & Text | Print | Product List | Glossary On
Versions: 1 2 3 4 5 6 7 8 9 10 11 12 13 14 15 16 17 18 19 20 21 22 23 24 25 26 27 28 29 30 31 32 33 34 35 36 37 38 39 40 41 42 43 44 45 46 47 48 49 50
432
ASUS43 KDMX 092308
RWRIA

WEATHER ROUNDUP FOR IOWA
NATIONAL WEATHER SERVICE DES MOINES IA
500 PM CST TUE FEB 09 2016

NOTE: "FAIR" INDICATES FEW OR NO CLOUDS BELOW 12,000 FEET WITH NO
SIGNIFICANT WEATHER AND/OR OBSTRUCTIONS TO VISIBILITY.

* - THESE STATIONS ARE NOT NWS STATIONS...THUS NOT UNDER NWS
QUALITY CONTROL.  THEY ALSO DO NOT REPORT WEATHER SUCH
AS PRECIPITATION OR FOG.

IAZ001>003-012>014-020>022-031>034-043>046-100000-
   NORTHWEST IOWA

CITY           SKY/WX    TMP DP  RH WIND       PRES   REMARKS
CARROLL *      CLOUDY    18   9  68 NW20G28   30.18S WCI   1
CHEROKEE *     CLOUDY    19  12  73 NW13G18   30.20F WCI   7
DENISON *      CLOUDY    19  10  68 NW12G18   30.20R WCI   7
LE MARS *      MOCLDY    23  14  68 NW12      30.24S WCI  12
ORANGE CITY *  PTCLDY    21  12  68 NW12      30.21R WCI   9
SHELDON *      CLOUDY    19  12  73 NW15      30.19S WCI   5
SIOUX CITY     CLEAR     25  13  60 NW14      30.25R WCI  13
SPENCER        CLOUDY    18   9  68 NW15G23   30.17S WCI   4
STORM LAKE *   CLOUDY    18  10  73 NW22      30.17F WCI   0
$$

IAZ055>058-069>071-079>083-090>094-100000-
   SOUTHWEST IOWA

CITY           SKY/WX    TMP DP  RH WIND       PRES   REMARKS
ATLANTIC *     CLOUDY    19   9  63 NW14      30.22S WCI   6
AUDUBON *      CLOUDY    18   9  68 NW9       30.19S WCI   6
CLARINDA *     CLOUDY    23   9  54 NW16G22   30.25R WCI  10
COUNCIL BLFS * CLEAR     21   9  58 NW16G22   30.24S WCI   7
CRESTON *      CLEAR     19   7  58 NW23G30   30.18R WCI   2
HARLAN  *      CLOUDY    21  10  63 NW20      30.26R WCI   6
LAMONI         CLEAR     20   4  50 NW21G31   30.16R WCI   4
RED OAK *      CLOUDY    21   9  58 NW17G24   30.24S WCI   7
SHENANDOAH *   MOCLDY    25   9  50 NW13G20   30.26S WCI  13
$$

IAZ047>049-059>061-072>074-084-100000-
   CENTRAL IOWA

CITY           SKY/WX    TMP DP  RH WIND       PRES   REMARKS
AMES           CLEAR     16   6  65 NW20      30.15R WCI  -1
ANKENY *       PTCLDY    18   7  62 NW21G28   30.16R WCI   1
BOONE *        PTCLDY    16   7  67 NW21G30   30.13S WCI  -2
CHARITON *     CLEAR     18   5  57 NW20      30.14R WCI   1
DES MOINES     PTCLDY    18   5  57 NW21      30.17R WCI   1
GRINNELL*      CLEAR     14   7  73 NW26      30.11R WCI  -6
KNOXVILLE *    PTCLDY    18   5  57 NW20      30.12R WCI   1
MARSHALLTOWN   PTCLDY    14   5  67 NW20G31   30.11R WCI  -3
NEWTON *       FLURRIES  16   7  67 NW25G32   30.13R WCI  -3
PELLA *        CLEAR     18   7  62 NW16G24   30.15R WCI   3
$$

IAZ004>006-015-016-023>025-035-036-100000-
   NORTH CENTRAL IOWA

CITY           SKY/WX    TMP DP  RH WIND       PRES   REMARKS
ALGONA *       CLOUDY    16   9  73 NW17G29   30.14R WCI   0
CLARION *      CLOUDY    14   7  73 NW23G29   30.13R WCI  -5
ESTHERVILLE    CLEAR     15   7  70 NW21G28   30.15R WCI  -2
FORT DODGE *   CLEAR     16   7  67 NW10G21   30.16R WCI   3
MASON CITY     CLEAR     13   4  67 NW20      30.10R WCI  -5
FOREST CITY *  CLEAR     14   5  67 NW17G30   30.10S WCI  -3
WEBSTER CITY * PTCLDY    16   7  67 NW28      30.12S WCI  -4
IOWA FALLS *     N/A     14   7  73 NW23      30.11S WCI  -5
$$

IAZ007>011-017>019-026>030-037>042-050>054-066-100000-
   NORTHEAST IOWA

CITY           SKY/WX    TMP DP  RH WIND       PRES   REMARKS
CEDAR RAPIDS   PTCLDY    13   6  74 NW24      30.05R WCI  -7
CHARLES CITY * CLEAR     14   3  62 NW22G29   30.07R WCI  -4
CLINTON *      FLURRIES  15   8  73 NW21      30.00R WCI  -2
DECORAH *      CLEAR     14   0  52 NW16G26   30.00R WCI  -2
DUBUQUE        CLEAR     13   0  56 NW17G28   29.98R WCI  -4
MONTICELLO *   CLEAR     14   3  62 NW18      30.02R WCI  -3
OELWEIN *      CLEAR     12   3  67 NW22      30.05R WCI  -7
WATERLOO       CLEAR     13   3  64 NW17      30.08R WCI  -4
$$

IAZ064-065-067-068-078-100000-
   EAST CENTRAL IOWA

CITY           SKY/WX    TMP DP  RH WIND       PRES   REMARKS
DAVENPORT      PTCLDY    14   3  61 NW21G31   30.02R WCI  -4
IOWA CITY      CLEAR     15   4  61 NW17      30.09R WCI  -1
MT. PLEASANT * CLEAR     19   7  58 NW18G24   30.07R WCI   4
MUSCATINE *    CLEAR     16   5  62 NW20G29   30.07R WCI  -1
QUAD CITIES    CLOUDY    15   5  64 NW20G28   30.02R WCI  -2
$$

IAZ062-063-075>077-085>089-095>099-100000-
   SOUTHEAST IOWA

CITY           SKY/WX    TMP DP  RH WIND       PRES   REMARKS
BURLINGTON     CLEAR     17   6  62 NW15G22   30.05R WCI   2
FAIRFIELD *    CLEAR     16   5  62 NW23      30.08R WCI  -2
FORT MADISON * CLEAR     18   7  62 W16G25    30.06R WCI   3
KEOKUK *       CLEAR     19   7  58 NW10      30.07R WCI   8
OSKALOOSA *      N/A     16   9  73 NW21      30.11R WCI  -2
CENTERVILLE *  CLEAR     19   7  58 W21       30.13R WCI   3
OTTUMWA        PTCLDY    17   8  67 NW20G28   30.11R WCI   1
WASHINGTON *   CLEAR     16   3  57 NW24G31   30.09R WCI  -3
$$

ABBREVIATIONS USED IN REMARKS
   TC - TEMPERATURES IN CELSIUS
  WCI - WIND CHILL INDEX
   HX - HEAT INDEX
  VSB - VISIBILITY
$$





USA.gov is the U.S. government's official web portal to all federal, state and local government web resources and services.